Temp
15 14 14 14 16 18 17 17 17 18 19 18 18 18 19 19 19 18 18 18 19 19 20 19 18 16 15 15 14 15 15 14 14 13 13 13 13 14 14 14 14 14 14 14
15 14 15 15 16 16 16 16 16 17 18 18 18 19 19 18 19 19 19 18 18 19 19 16 15 14 14 13 13 14 14 13 13 13 13 13 13 13 13 14 14 14 14 14
14 15 16 16 16 16 15 15 16 16 18 17 16 18 18 19 19 20 20 19 20 19 18 16 14 14 13 13 13 13 13 13 13 13 13 13 13 13 13 12 13 14 14 13
14 16 17 16 16 16 15 17 17 16 16 14 17 17 19 19 20 20 20 20 21 20 18 17 15 14 13 13 12 12 12 13 12 13 12 12 11 11 12 12 12 13 14 14
15 17 15 16 16 16 16 17 16 16 16 16 16 14 17 19 18 20 20 20 20 20 18 17 16 15 14 13 12 12 12 12 12 12 12 12 12 11 11 12 12 12 13 13
15 16 17 16 18 17 19 17 17 16 14 13 16 15 18 18 18 19 20 20 20 20 18 19 18 15 13 12 12 12 12 12 12 12 12 12 12 11 11 10 11 11 12 12
15 15 16 17 16 16 17 17 14 14 14 15 16 15 18 19 20 19 19 18 19 20 18 17 16 14 14 12 12 12 12 12 11 11 12 12 11 11 11 10 10 11 11 11
12 14 14 15 16 15 14 15 13 15 14 16 16 15 17 19 18 18 18 18 19 19 20 19 17 14 14 13 12 12 12 12 11 11 11 11 11 11 11 10 10 10 10 10
13 13 16 16 17 17 16 15 17 16 15 14 15 16 18 18 16 16 16 17 17 18 19 19 17 14 14 13 12 12 12 12 11 11 11 11 11 11 11 10 11 10 10 10
15 14 17 18 17 16 17 17 16 14 15 15 15 16 16 16 15 16 15 15 16 18 19 19 17 14 14 13 12 12 12 12 12 11 11 11 11 11 11 10 11 11 11 11
14 14 15 17 17 15 15 16 16 16 14 16 15 14 15 16 16 15 14 14 16 18 19 18 17 15 14 13 12 12 12 12 12 11 11 10 10 11 11 11 11 11 11 11
12 12 12 15 15 15 16 16 15 14 15 14 14 15 18 18 17 16 15 14 16 18 18 17 18 15 14 13 13 12 12 12 12 12 11 11 10 11 11 11 11 12 12 12
9 11 12 15 15 14 13 14 15 15 14 14 14 15 18 18 18 17 14 13 15 17 18 18 18 16 14 13 13 12 12 12 12 12 11 11 11 10 11 11 11 12 12 12
10 10 10 13 13 14 13 14 13 14 13 13 14 16 17 16 17 16 16 14 14 17 17 15 17 17 15 14 13 13 12 12 12 12 12 11 11 11 11 11 11 12 12 12
10 9 11 13 14 14 14 14 13 14 14 13 15 16 16 14 15 15 16 16 16 16 14 13 15 16 15 14 14 13 13 12 12 12 12 12 11 12 11 11 11 12 12 11
11 10 11 12 13 13 14 15 15 14 16 15 14 15 14 14 15 14 14 16 16 14 13 12 12 11 14 14 14 14 13 12 12 12 12 12 12 12 12 11 11 11 11 11
11 11 10 11 11 12 13 14 14 12 12 13 14 13 13 13 14 13 13 12 12 12 11 10 10 9 9 10 11 13 13 13 12 12 12 12 12 12 12 12 11 11 11 11
10 10 8 9 10 9 14 14 14 13 13 12 13 13 12 12 13 12 11 10 10 10 9 9 8 8 7 8 8 10 13 13 13 12 12 12 13 12 13 13 12 12 11 11
10 9 8 8 8 11 13 13 13 12 10 11 11 12 12 12 13 10 9 9 8 8 8 8 7 6 6 7 7 7 7 11 12 11 12 12 12 12 12 12 12 12 12 11
9 10 9 7 9 9 12 12 12 12 11 10 10 11 10 11 10 9 8 7 7 7 6 6 5 4 4 4 6 6 6 6 6 5 6 8 10 12 12 12 12 12 12 12
8 8 9 8 8 10 12 11 11 12 10 9 10 9 11 10 9 8 7 6 5 5 4 4 3 2 2 2 3 3 3 3 3 3 4 5 6 8 10 12 12 12 12 12
9 9 9 9 8 9 10 11 11 9 9 9 8 8 9 8 7 7 6 5 3 3 2 2 2 1 1 1 1 1 -0 0 0 0 1 1 2 4 5 8 7 9 8 6
9 9 8 9 9 9 8 8 8 8 7 7 7 6 6 5 5 5 4 3 2 1 0 1 1 0 -0 -0 -0 -0 -1 -1 -2 -2 -2 -2 -1 -0 1 2 2 1 1 -0
7 8 10 9 9 8 7 8 7 7 6 5 5 4 4 4 4 3 2 1 0 -0 -1 -1 -1 -1 -1 -1 -1 -2 -2 -2 -2 -3 -3 -3 -3 -3 -2 -1 -1 -1 -2 -3
7 7 7 8 6 6 5 6 6 6 5 4 3 2 2 3 2 1 -0 -1 -1 -2 -2 -2 -2 -2 -2 -2 -2 -3 -2 -3 -3 -4 -4 -4 -4 -4 -4 -4 -3 -3 -2 -0
5 5 6 5 5 5 4 5 5 3 2 2 2 2 1 1 0 -1 -2 -2 -3 -3 -3 -3 -3 -3 -3 -3 -4 -4 -3 -4 -4 -4 -4 -4 -4 -4 -4 -4 -4 -4 -4 -4
Height
727 737 735 741 735 730 732 735 736 731 721 726 723 716 712 708 705 704 703 701 694 686 677 675 674 680 684 689 695 701 709 716 720 724 726 728 730 733 737 740 742 746 749 753
729 729 728 728 730 733 734 736 737 732 725 726 720 706 706 706 702 699 696 694 690 685 681 679 677 682 679 682 690 698 705 712 715 720 722 724 727 731 734 737 739 742 747 747
726 720 713 722 728 733 734 735 735 733 725 723 723 705 708 698 694 690 686 685 680 679 679 677 678 683 679 681 684 693 702 707 711 717 720 722 726 729 732 734 736 739 743 743
720 712 714 721 723 727 735 725 725 730 734 744 719 717 703 699 695 690 683 677 673 673 671 668 673 680 675 677 684 692 700 704 708 713 716 718 721 723 727 731 734 737 739 742
712 705 715 716 715 719 725 717 724 723 730 731 727 741 705 693 698 691 678 676 671 665 664 661 665 665 674 676 680 687 696 701 705 709 714 716 718 722 726 730 733 735 738 742
709 703 706 709 706 710 709 716 718 722 733 744 725 733 690 698 693 685 676 672 665 659 660 653 654 665 674 683 682 686 692 697 703 707 712 714 717 721 725 729 732 733 735 739
709 707 704 703 713 709 712 720 738 740 740 729 712 722 691 686 679 680 678 672 660 654 651 650 655 659 666 672 681 684 688 693 700 704 709 712 715 718 722 728 731 733 734 736
719 714 703 697 700 712 715 722 736 730 734 717 712 713 696 677 679 678 674 666 662 656 647 640 640 648 657 666 674 679 684 689 696 700 705 710 713 716 720 726 730 733 735 736
715 713 690 689 689 696 706 713 708 719 718 725 714 697 683 677 684 679 675 668 668 659 645 637 633 639 648 657 665 671 679 686 693 697 702 707 710 714 717 724 730 733 736 738
701 712 691 683 686 691 693 693 715 719 720 718 708 701 701 691 688 684 677 677 670 655 641 628 634 637 643 652 663 671 676 681 689 694 699 704 708 711 716 721 727 731 735 738
704 706 703 690 690 696 698 701 699 701 713 707 712 708 691 689 684 686 682 689 676 655 647 641 639 644 652 654 658 666 673 679 686 692 696 701 705 709 714 718 723 729 734 738
716 712 711 698 691 690 686 689 697 708 707 711 712 699 677 677 676 675 682 683 670 660 652 646 634 640 649 658 659 663 669 676 683 688 693 698 703 707 712 717 722 725 731 736
732 723 711 698 695 691 703 699 696 695 703 708 711 700 676 673 672 677 687 683 673 656 644 633 628 633 639 653 662 662 666 673 679 685 689 695 700 703 707 713 719 724 728 733
731 729 731 708 701 696 705 700 702 701 711 711 703 691 681 682 676 677 671 679 677 660 649 636 625 632 640 647 658 663 664 669 676 681 686 690 695 699 703 708 715 721 726 730
725 727 726 706 692 696 701 698 701 700 699 706 696 692 686 689 684 677 670 667 670 660 653 654 641 640 646 651 658 666 672 674 679 682 684 688 693 698 703 705 708 715 722 726
718 726 717 709 704 698 696 693 691 692 689 690 700 693 695 691 685 682 678 665 666 670 667 668 663 656 653 654 657 663 670 673 675 682 686 690 694 698 700 704 707 710 715 720
719 720 727 716 709 705 700 693 689 697 700 694 697 704 696 696 693 693 688 683 682 684 680 680 678 673 666 664 662 664 665 670 674 678 680 684 689 693 698 702 706 708 710 715
720 721 732 727 720 730 696 686 687 695 703 703 702 702 701 700 696 695 697 693 691 689 690 684 681 676 675 673 665 665 665 667 671 678 682 684 686 688 694 698 700 704 709 710
718 726 738 736 735 711 698 697 697 699 716 711 710 704 700 696 691 702 706 704 702 700 695 687 685 684 681 678 676 670 668 668 672 678 680 681 681 685 688 690 695 698 702 705
718 721 731 738 726 731 701 697 700 698 705 715 713 708 710 701 706 711 711 709 708 705 701 694 694 693 688 686 684 677 677 676 677 679 680 680 679 679 678 681 686 691 695 698
726 731 727 732 736 714 700 701 699 705 717 715 713 711 707 709 714 716 715 710 710 709 706 706 704 701 696 690 689 688 685 683 685 682 681 681 680 677 675 677 679 682 688 691
720 722 724 725 733 720 706 700 703 716 715 716 716 716 715 717 718 718 719 718 715 715 713 716 713 708 704 701 697 694 692 692 689 687 682 684 683 679 676 674 675 677 681 684
712 713 718 714 714 714 715 716 716 716 720 722 722 722 722 725 724 724 724 724 721 720 714 720 720 715 711 708 704 701 700 695 695 692 691 690 688 685 682 680 679 680 684 690
722 711 706 708 714 720 722 722 724 724 727 730 731 730 729 730 730 730 731 731 729 726 723 723 718 713 711 709 709 707 706 700 701 700 700 698 694 693 691 690 691 690 691 696
727 721 718 719 727 728 733 733 732 733 734 736 738 738 738 735 735 735 734 733 732 731 731 729 722 720 721 719 717 715 709 708 707 708 708 705 704 704 702 700 700 701 704 702
734 734 728 734 735 731 739 738 737 739 743 744 743 743 743 741 741 741 741 740 738 737 735 732 730 727 727 725 722 718 714 716 714 712 714 713 712 715 713 712 712 713 715 718
Wind_Speed
5 6 11 9 9 6 4 4 4 0 4 6 8 14 11 8 9 9 8 9 10 11 10 10 18 25 28 32 36 38 36 32 29 26 23 21 21 22 22 24 27 30 31 36
1 11 7 9 8 5 6 6 5 5 8 7 14 25 15 7 7 9 9 10 10 9 5 4 13 21 30 34 34 36 37 32 29 24 20 18 21 22 20 24 25 29 33 39
7 6 10 12 6 7 7 9 3 10 2 6 7 22 9 5 6 8 8 10 13 12 9 8 10 19 24 30 34 36 33 29 26 28 24 17 17 15 18 20 21 22 31 36
7 9 10 8 10 8 12 6 13 7 3 4 4 13 12 4 11 7 13 14 19 12 9 11 14 14 26 29 30 32 28 26 26 28 26 24 15 9 13 19 22 23 20 33
8 2 7 12 7 9 6 7 9 9 5 1 4 3 4 4 5 12 13 12 14 15 11 13 17 23 25 27 31 32 26 24 28 28 26 25 19 16 15 18 19 22 23 22
6 1 2 5 2 5 2 4 4 1 3 5 6 7 16 6 5 6 7 13 21 14 9 13 18 19 20 19 26 28 27 27 26 28 27 25 22 19 18 17 16 18 20 25
1 12 3 4 4 4 3 1 3 2 2 7 10 7 14 9 14 8 7 13 19 15 9 10 15 16 23 28 27 27 28 26 27 28 28 26 24 23 22 22 18 17 18 22
2 6 10 7 16 7 8 8 5 6 4 8 7 7 5 1 6 8 13 17 20 21 16 16 20 19 25 30 30 29 29 26 28 26 30 27 25 24 21 23 21 19 18 21
3 5 5 6 7 13 5 9 8 8 2 3 4 6 5 3 11 15 19 23 25 25 22 14 18 20 27 32 33 33 30 27 28 25 30 29 27 25 24 24 24 16 19 25
3 3 5 3 3 8 14 6 3 2 7 13 3 3 5 7 10 13 17 25 28 24 24 3 12 17 27 29 29 29 29 29 28 25 30 30 29 27 25 25 24 25 22 23
2 1 6 6 1 4 4 4 5 5 5 8 9 5 6 4 1 7 12 20 23 22 18 2 8 11 17 23 29 30 27 28 28 27 29 28 30 29 28 28 27 30 27 24
5 3 5 12 2 2 2 2 5 4 5 2 3 7 7 2 6 4 4 14 21 20 15 13 10 13 14 17 24 28 27 28 27 26 27 29 29 29 29 28 29 29 30 29
7 4 3 2 1 3 4 3 3 1 3 4 5 3 5 6 4 3 6 10 21 23 22 15 10 13 15 18 20 25 27 28 27 27 27 27 28 29 30 30 30 29 30 32
3 1 6 6 1 3 2 1 2 3 2 1 3 3 3 7 4 1 3 3 14 18 19 22 5 10 11 19 20 21 25 28 27 27 26 27 29 29 30 31 31 31 31 32
3 3 11 9 3 1 3 3 5 3 4 3 4 5 5 7 11 11 10 4 6 16 19 20 13 6 6 10 13 13 13 19 23 24 24 26 27 28 27 29 31 32 32 31
5 0 4 2 4 2 2 5 4 6 3 3 4 11 4 6 11 13 12 7 8 8 15 17 17 16 9 7 13 16 17 21 24 21 20 22 23 25 26 27 28 29 31 32
1 0 3 3 5 6 1 1 3 7 6 1 1 2 7 5 8 10 10 12 12 11 11 13 13 13 12 16 16 8 20 22 20 21 24 24 25 24 24 25 26 28 29 29
3 1 1 3 5 1 2 4 13 13 9 8 6 4 4 6 2 9 11 12 13 13 12 11 11 14 20 19 19 12 8 19 22 18 18 21 24 25 24 25 27 27 26 29
9 3 2 2 2 4 3 3 3 2 4 8 4 8 8 8 8 10 15 13 12 13 12 12 18 19 19 22 19 17 20 14 8 3 5 16 24 25 25 27 26 26 27 27
7 4 2 1 2 3 4 3 5 1 2 4 4 7 8 10 3 3 8 10 11 13 17 17 20 19 20 22 19 18 17 17 15 12 9 7 8 23 28 29 29 28 28 29
3 2 7 2 3 5 2 6 5 4 2 3 3 4 6 3 3 5 7 10 12 13 20 18 16 17 21 22 19 18 18 20 15 11 10 9 8 6 8 25 29 29 28 27
4 5 4 3 3 6 7 2 3 3 2 3 5 6 7 7 7 8 10 10 11 11 16 18 14 16 18 19 16 19 21 17 16 15 17 15 12 10 7 6 7 12 16 17
3 3 3 4 2 4 8 9 7 5 5 5 7 8 6 8 7 9 9 11 11 13 16 15 12 14 17 19 18 17 16 19 21 22 22 21 20 19 16 16 17 21 19 21
4 4 1 3 7 10 10 11 10 8 9 9 9 9 9 8 8 8 8 9 10 14 15 14 15 19 20 23 21 19 16 19 20 22 22 23 26 25 25 24 22 24 24 24
2 7 4 4 4 6 12 10 6 10 10 10 11 11 10 8 9 8 9 10 11 14 16 16 16 17 18 18 19 18 18 15 19 19 19 22 25 27 30 33 27 23 16 19
4 4 3 1 3 4 5 9 10 12 10 9 8 9 10 10 9 8 8 11 13 14 15 16 18 17 17 17 19 21 19 17 17 20 20 20 22 22 25 31 40 45 39 32
Wind_Direction
189 193 215 200 217 234 220 241 212 195 283 326 274 278 283 279 288 281 271 273 279 287 302 232 182 177 170 177 180 183 186 189 185 185 181 189 197 210 217 216 214 219 199 202
174 235 214 194 217 210 226 238 248 261 246 259 282 279 284 254 250 245 265 280 274 281 273 192 154 175 173 172 175 179 185 184 183 186 186 185 195 207 214 222 216 208 202 197
195 207 188 183 195 212 222 231 171 237 288 260 289 283 270 257 249 262 260 248 272 254 220 187 175 195 172 174 176 177 180 181 184 192 188 187 200 215 224 229 214 208 209 188
240 227 243 201 227 195 253 213 243 264 144 250 140 290 269 236 261 285 283 291 288 280 218 197 184 191 187 183 175 174 178 178 183 190 188 187 181 164 203 221 223 220 200 204
222 205 210 220 198 182 225 226 211 232 209 260 249 271 34 73 276 269 273 273 280 272 213 194 194 195 198 176 173 172 173 177 187 189 196 191 186 187 200 216 221 224 226 217
203 103 163 202 196 196 284 260 271 175 154 258 207 187 280 231 223 265 277 312 306 275 236 210 200 173 180 181 170 170 173 177 188 190 197 192 190 180 184 194 197 209 220 216
46 250 220 161 308 306 165 40 309 302 177 239 176 205 244 296 288 278 313 311 335 318 245 196 174 173 175 178 179 174 174 174 186 187 196 195 187 189 184 182 180 179 187 193
166 322 179 189 209 184 198 165 193 221 221 258 184 237 245 277 351 344 348 347 335 333 331 203 185 178 178 179 180 176 177 174 184 183 193 195 194 190 185 185 181 176 171 170
200 273 289 196 199 179 194 216 199 249 221 258 219 287 316 84 16 3 353 341 330 321 330 227 182 177 176 178 182 178 176 177 184 182 192 196 196 192 185 187 193 179 174 168
242 275 264 299 121 226 209 149 196 249 234 249 242 252 247 348 353 360 7 337 321 320 335 279 181 177 178 175 177 176 177 178 183 183 192 194 195 195 192 185 193 191 186 178
286 230 280 357 315 197 146 215 208 194 174 249 264 260 200 192 274 4 8 315 312 319 325 277 176 174 186 175 172 175 176 176 182 187 188 190 191 192 191 189 191 197 193 194
348 289 210 245 251 311 192 155 161 179 219 203 185 262 183 102 83 92 283 312 320 318 310 264 186 156 169 184 173 176 175 178 185 188 186 188 189 189 189 190 197 199 203 200
345 337 308 310 321 55 29 2 347 120 71 217 210 242 317 331 271 152 67 347 321 314 331 356 171 170 165 175 185 177 179 182 183 189 187 186 186 186 189 194 198 202 203 201
301 86 286 265 135 116 190 298 3 95 107 241 251 299 291 348 1 223 138 111 299 313 349 353 347 164 162 166 182 188 182 183 182 186 188 189 191 191 192 193 200 203 205 204
207 96 272 263 77 248 207 236 220 178 187 157 281 294 6 6 335 308 330 346 294 337 7 3 4 81 136 153 173 191 180 178 184 192 192 196 194 196 198 196 196 204 206 209
184 222 255 267 2 3 241 262 252 222 222 268 319 291 340 342 324 342 336 26 92 10 10 11 10 30 37 139 164 168 180 183 187 190 197 203 202 200 202 203 203 202 206 209
307 222 350 280 344 315 171 265 251 76 26 59 184 304 338 317 358 11 9 38 40 25 36 15 7 14 14 18 27 173 183 185 190 199 198 199 200 201 205 208 210 209 205 208
288 4 7 279 9 53 42 64 96 90 76 56 75 4 327 291 350 54 45 31 18 19 14 17 16 14 7 10 23 38 187 185 195 208 208 205 203 207 212 214 213 214 214 212
212 116 266 127 258 271 151 35 88 93 52 17 8 1 350 318 207 30 17 30 22 12 9 20 15 11 8 12 11 38 45 75 137 45 231 215 209 211 214 216 214 212 213 216
144 137 157 52 262 222 225 111 7 81 135 309 335 20 58 21 63 335 4 27 22 20 16 21 15 13 15 6 12 35 42 51 45 25 1 327 304 229 215 216 215 216 216 219
110 145 208 204 247 276 301 321 318 144 187 305 346 36 24 85 57 25 9 28 28 30 28 22 26 18 12 12 24 34 36 33 18 25 23 7 345 329 250 227 215 215 216 220
200 176 184 185 219 254 356 26 92 173 125 40 28 30 52 45 38 28 20 19 30 22 37 24 27 28 26 26 34 36 32 18 19 24 34 29 26 30 33 156 164 183 187 173
247 219 195 184 192 89 40 68 50 73 74 32 38 20 36 42 37 24 24 18 18 13 34 16 28 36 33 31 34 42 32 42 40 40 39 40 45 50 59 71 86 86 97 88
310 321 62 122 101 72 59 53 47 70 77 60 44 35 34 39 31 32 24 27 23 16 21 10 27 27 22 23 29 35 40 59 64 57 45 42 46 48 56 66 67 79 83 82
337 318 346 86 63 89 46 48 23 84 78 68 59 47 28 33 41 34 22 20 21 24 17 15 33 35 22 22 32 40 54 59 68 64 63 61 59 60 62 60 58 67 86 121
356 350 358 78 9 69 59 41 71 72 59 47 48 50 39 31 33 41 37 28 24 22 21 26 28 36 29 35 40 43 60 69 70 72 66 65 71 69 74 80 76 72 75 78